Weather History for KLMO - March, 2014

Change the Weather History Date:

Thursday, March 20, 2014

  Actual Average (KBJC) Record (KBJC)
Temperature  
Mean Temperature 48 °F -  
Max Temperature 67 °F 52 °F 80 °F (1997)
Min Temperature 29 °F 32 °F 17 °F (1998)
Degree Days  
Heating Degree Days 17    
Moisture  
Dew Point 7 °F    
Average Humidity 20    
Maximum Humidity 68    
Minimum Humidity 9    
Precipitation  
Precipitation 0.00 in - - ()
Sea Level Pressure  
Sea Level Pressure 29.90 in    
Wind  
Wind Speed 8 mph (West)    
Max Wind Speed 25 mph    
Max Gust Speed 38 mph    
Visibility 10 miles    
Events      
Averages and records for this station are not official NWS values.
T = Trace of Precipitation, MM = Missing Value Source: NWS Daily Summary

Daily Weather History Graph

Daily Weather History Graph

Search for Another Location

Airport or City:

Trip Planner

Search our weather history database for the weather conditions in past years. The results will help you decide how hot, cold, wet, or windy it might be!

Date:

Astronomy

Mar. 20, 2014 Rise Set
Actual Time 7:03 AM MDT 7:12 PM MDT
Civil Twilight 6:36 AM MDT 7:39 PM MDT
Nautical Twilight 6:05 AM MDT 8:11 PM MDT
Astronomical Twilight 5:33 AM MDT 8:43 PM MDT
Moon 11:35 PM MDT (3/20) 9:11 AM MDT (3/20)
Length of Visible Light 13h 03m
Length of Day
12h 08m
Waning Gibbous, 83% of the Moon is Illuminated
Mar 20
Waning Gibbous
Mar 23
Last Quarter
Mar 30
New
Apr 7
First Quarter
Apr 15
Full

Hourly Weather History & Observations

Time (MDT) Temp. Windchill Dew Point Humidity Pressure Visibility Wind Dir Wind Speed Gust Speed Precip Events Conditions
12:15 AM 34.9 °F 30.8 °F 18.0 °F 50% 30.00 in 10.0 mi West 4.6 mph - N/A   Clear
12:35 AM 32.0 °F 28.7 °F 18.0 °F 56% 29.99 in 10.0 mi South 3.5 mph - N/A   Clear
12:55 AM 32.0 °F 27.5 °F 18.1 °F 57% 29.99 in 10.0 mi NNE 4.6 mph - N/A   Clear
1:15 AM 33.1 °F 27.7 °F 19.9 °F 59% 30.00 in 10.0 mi SSW 5.8 mph - N/A   Clear
1:35 AM 30.9 °F - 19.2 °F 62% 29.99 in 10.0 mi Calm Calm - N/A   Clear
1:55 AM 29.3 °F - 18.9 °F 65% 29.99 in 10.0 mi Calm Calm - N/A   Clear
2:15 AM 31.3 °F - 19.9 °F 63% 29.99 in 10.0 mi Calm Calm - N/A   Clear
2:35 AM 31.1 °F 27.7 °F 20.3 °F 64% 29.98 in 10.0 mi East 3.5 mph - N/A   Clear
2:54 AM 30.0 °F 26.5 °F 19.8 °F 66% 29.98 in 10.0 mi ENE 3.5 mph - N/A   Clear
3:15 AM 30.2 °F - 20.8 °F 68% 29.96 in 10.0 mi Calm Calm - N/A   Clear
3:35 AM 29.3 °F - 19.9 °F 68% 29.96 in 10.0 mi Calm Calm - N/A   Clear
3:55 AM 45.1 °F 38.8 °F 6.6 °F 21% 29.96 in 10.0 mi WSW 13.8 mph 17.3 mph N/A   Clear
4:15 AM 47.7 °F - 2.8 °F 16% 29.96 in 10.0 mi West 9.2 mph - N/A   Clear
4:35 AM 48.0 °F - 2.5 °F 15% 29.96 in 10.0 mi West 5.8 mph - N/A   Clear
4:55 AM 48.7 °F - 2.8 °F 15% 29.96 in 10.0 mi West 17.3 mph 21.9 mph N/A   Clear
5:15 AM 48.7 °F - 1.8 °F 15% 29.97 in 10.0 mi SW 6.9 mph 18.4 mph N/A   Clear
5:35 AM 48.4 °F - 1.9 °F 15% 29.97 in 10.0 mi WSW 6.9 mph - N/A   Clear
5:55 AM 46.6 °F - 1.9 °F 16% 29.97 in 10.0 mi WSW 3.5 mph - N/A   Clear
6:15 AM 42.8 °F - 3.6 °F 20% 29.98 in 10.0 mi Calm Calm - N/A   Clear
6:35 AM 46.9 °F - 1.9 °F 16% 29.97 in 10.0 mi SW 5.8 mph - N/A   Clear
6:55 AM 47.7 °F - 1.9 °F 15% 29.97 in 10.0 mi West 6.9 mph 12.7 mph N/A   Clear
7:15 AM 45.0 °F 41.8 °F 1.8 °F 17% 29.96 in 10.0 mi SW 5.8 mph - N/A   Clear
7:35 AM 48.7 °F - 1.8 °F 15% 29.96 in 10.0 mi WSW 10.4 mph 16.1 mph N/A   Clear
7:55 AM 50.7 °F - 1.4 °F 13% 29.95 in 10.0 mi West 15.0 mph 26.5 mph N/A   Clear
8:14 AM 44.1 °F 39.5 °F 8.8 °F 24% 29.97 in 10.0 mi West 8.1 mph - N/A   Clear
8:34 AM 48.7 °F - 9.3 °F 20% 29.96 in 10.0 mi NNW 8.1 mph - N/A   Clear
8:54 AM 52.2 °F - 8.2 °F 17% 29.96 in 10.0 mi Calm Calm - N/A   Clear
9:15 AM 56.3 °F - 2.8 °F 12% 29.95 in 10.0 mi WSW 12.7 mph 21.9 mph N/A   Clear
9:35 AM 57.2 °F - 3.4 °F 11% 29.95 in 10.0 mi West 16.1 mph 26.5 mph N/A   Clear
9:55 AM 58.5 °F - 4.1 °F 11% 29.94 in 10.0 mi West 15.0 mph 23.0 mph N/A   Clear
10:14 AM 59.4 °F - 4.1 °F 11% 29.94 in 10.0 mi WNW 10.4 mph 27.6 mph N/A   Clear
10:35 AM 60.4 °F - 4.5 °F 11% 29.93 in 10.0 mi SSW 4.6 mph - N/A   Clear
10:54 AM 61.5 °F - 4.1 °F 10% 29.92 in 10.0 mi SE 5.8 mph - N/A   Clear
11:14 AM 61.2 °F - 5.9 °F 11% 29.91 in 10.0 mi East 11.5 mph - N/A   Clear
11:35 AM 63.7 °F - 8.1 °F 11% 29.91 in 10.0 mi ESE 16.1 mph - N/A   Clear
11:55 AM 65.1 °F - 8.6 °F 11% 29.91 in 10.0 mi East 10.4 mph - N/A   Clear
12:15 PM 64.4 °F - 6.3 °F 10% 29.90 in 10.0 mi NE 9.2 mph - N/A   Clear
12:34 PM 64.6 °F - 7.0 °F 10% 29.89 in 10.0 mi NE 6.9 mph - N/A   Clear
12:55 PM 64.0 °F - 4.1 °F 9% 29.88 in 10.0 mi SE 3.5 mph - N/A   Clear
1:15 PM 63.7 °F - 4.5 °F 10% 29.87 in 10.0 mi West 24.2 mph 32.2 mph N/A   Clear
1:34 PM 64.0 °F - 3.7 °F 9% 29.88 in 10.0 mi West 25.3 mph 38.0 mph N/A   Clear
1:55 PM 65.8 °F - 3.7 °F 9% 29.87 in 10.0 mi WSW 12.7 mph 25.3 mph N/A   Clear
2:15 PM 66.4 °F - 6.4 °F 9% 29.85 in 10.0 mi WNW 13.8 mph 36.8 mph N/A   Clear
2:35 PM 64.8 °F - 6.6 °F 10% 29.85 in 10.0 mi WNW 19.6 mph 24.2 mph N/A   Clear
2:55 PM 64.6 °F - 5.9 °F 10% 29.85 in 10.0 mi West 13.8 mph 32.2 mph N/A   Clear
3:15 PM 66.0 °F - 7.7 °F 10% 29.84 in 10.0 mi West 16.1 mph 21.9 mph N/A   Clear
3:35 PM 66.6 °F - 8.2 °F 10% 29.83 in 10.0 mi WNW 12.7 mph 19.6 mph N/A   Clear
3:55 PM 67.3 °F - 7.5 °F 10% 29.83 in 10.0 mi West 15.0 mph 19.6 mph N/A   Clear
4:14 PM 67.6 °F - 5.0 °F 9% 29.82 in 10.0 mi WNW 13.8 mph 31.1 mph N/A   Clear
4:35 PM 67.5 °F - 7.3 °F 10% 29.82 in 10.0 mi NW 17.3 mph 27.6 mph N/A   Clear
4:55 PM 67.1 °F - 6.6 °F 9% 29.82 in 10.0 mi NW 21.9 mph 27.6 mph N/A   Clear
5:13 PM 66.7 °F - 6.6 °F 9% 29.82 in 10.0 mi WNW 10.4 mph 24.2 mph N/A   Clear
5:35 PM 66.0 °F - 7.5 °F 10% 29.83 in 10.0 mi WNW 16.1 mph 26.5 mph N/A   Clear
5:55 PM 64.9 °F - 6.3 °F 10% 29.83 in 10.0 mi WNW 11.5 mph 20.7 mph N/A   Clear
6:15 PM 63.0 °F - 5.7 °F 10% 29.84 in 10.0 mi West 12.7 mph 18.4 mph N/A   Clear
6:35 PM 60.6 °F - 6.6 °F 12% 29.84 in 10.0 mi WNW 5.8 mph - N/A   Clear
6:55 PM 56.5 °F - 9.1 °F 15% 29.85 in 10.0 mi NW 8.1 mph - N/A   Clear
7:15 PM 54.1 °F - 7.9 °F 16% 29.84 in 10.0 mi WNW 3.5 mph - N/A   Clear
7:35 PM 57.6 °F - 1.9 °F 11% 29.83 in 10.0 mi WNW 11.5 mph 17.3 mph N/A   Clear
7:55 PM 58.3 °F - 1.8 °F 10% 29.83 in 10.0 mi WNW 15.0 mph 24.2 mph N/A   Clear
8:14 PM 57.6 °F - 2.7 °F 11% 29.83 in 10.0 mi West 15.0 mph 18.4 mph N/A   Clear
8:35 PM 58.3 °F - 1.9 °F 10% 29.83 in 10.0 mi West 13.8 mph 20.7 mph N/A   Clear
8:55 PM 58.8 °F - 1.4 °F 10% 29.84 in 10.0 mi WSW 12.7 mph 26.5 mph N/A   Clear
9:13 PM 58.1 °F - 1.9 °F 10% 29.84 in 10.0 mi WSW 15.0 mph 21.9 mph N/A   Clear
9:34 PM 57.0 °F - 2.1 °F 11% 29.84 in 10.0 mi WSW 10.4 mph - N/A   Clear
9:55 PM 58.5 °F - 1.4 °F 10% 29.85 in 10.0 mi West 13.8 mph 25.3 mph N/A   Clear
10:14 PM 57.2 °F - 2.1 °F 11% 29.85 in 10.0 mi West 19.6 mph 28.8 mph N/A   Clear
10:34 PM 57.4 °F - 1.4 °F 10% 29.85 in 10.0 mi WSW 12.7 mph 24.2 mph N/A   Clear
10:55 PM 55.6 °F - 2.3 °F 12% 29.86 in 10.0 mi West 12.7 mph 23.0 mph N/A   Clear
11:15 PM 49.8 °F - 2.7 °F 15% 29.86 in 10.0 mi SW 4.6 mph - N/A   Clear
11:35 PM 51.8 °F - 0.9 °F 12% 29.86 in 10.0 mi WSW 11.5 mph - N/A   Clear
11:55 PM 56.1 °F - 3.2 °F 12% 29.85 in 10.0 mi WSW 10.4 mph 19.6 mph N/A   Clear